Regional Weather Roundup
Issued by NWS

Home | Current Version | Previous Version | Graphics & Text | Print | Product List | Glossary On
Versions: 1 2 3 4 5 6 7 8 9 10 11 12 13 14 15 16 17 18 19 20 21 22 23 24 25 26 27 28 29 30 31 32 33 34 35 36 37 38 39 40 41 42 43 44 45 46 47 48 49 50
000
ASUS45 KBOU 310107
RWRCO

WEATHER ROUNDUP FOR COLORADO
NATIONAL WEATHER SERVICE DENVER/BOULDER CO
700 PM MDT WED JUL 30 2014

NOTE: "FAIR" INDICATES FEW OR NO CLOUDS BELOW 12000 FEET WITH NO
SIGNIFICANT WEATHER AND/OR OBSTRUCTIONS TO VISIBILITY.

COZ001>005-013-030-031-310200-
...NORTHWEST COLORADO...

CITY           SKY/WX    TMP DP  RH WIND       PRES   REMARKS
CRAIG          PTSUNNY   57  56  96 NE6       30.28S
HAYDEN         CLOUDY    61  54  77 SE9       30.30R
MEEKER         CLOUDY    72  52  49 VRB5      30.26R
MOUNT WERNER   NOT AVBL
STEAMBOAT SPGS CLOUDY    61  53  75 SE5       30.32S
WALDEN         CLOUDY    55  45  67 NE12      30.42R
$$

COZ006>008-011-310200-
...WEST CENTRAL VALLEYS...

CITY           SKY/WX    TMP DP  RH WIND       PRES   REMARKS
GRAND JUNCTION PTSUNNY   74  57  55 NW14      30.14R
MONTROSE       MOSUNNY   80  54  40 NW13      30.19S
EAGLE          PTSUNNY   66  55  68 VRB7      30.30S
RIFLE          CLOUDY    73  54  51 CALM      30.19S
DELTA          MOSUNNY   87  48  26 W14G21    30.13S
NUCLA          NOT AVBL
$$

COZ017>023-064>068-310200-
...SOUTHWEST COLORADO...

CITY           SKY/WX    TMP DP  RH WIND       PRES   REMARKS
DURANGO        MOSUNNY   82  45  27 NW14G22   30.19S
CORTEZ         SUNNY     84  50  30 N13       30.16S
PAGOSA SPRINGS MOSUNNY   74  45  36 E8        30.28S
TELLURIDE      MOSUNNY   66  48  52 W9        30.42S
WOLF CREEK PAS NOT AVBL
$$

COZ009-010-012-014-032>034-037-058>063-310200-
...CENTRAL COLORADO...

CITY           SKY/WX    TMP DP  RH WIND       PRES   REMARKS
ASPEN          LGT RAIN  60  52  74 N6G17     30.37R
BUENA VISTA    CLOUDY    60  51  73 SE7       30.40R
COPPER MTN     CLOUDY    46  41  81 W6        30.64S
BERTHOUD PASS  TSTM      36  36 100 SE8       30.70R VSB 1/4
COTTONWOOD PAS CLOUDY    55  50  82 E3        30.51R
GUNNISON       MOSUNNY   73  45  35 NW5G28    30.32R
KREMMLING      CLOUDY    55  50  82 E7        30.39S
LEADVILLE      CLOUDY    53  50  89 CALM      30.47S
MONARCH PASS   CLOUDY    45  43  93 NE12      30.72F VSB<1/4
SALIDA         CLOUDY    62  54  73 E15       30.43R
SUNLIGHT       CLOUDY    54  50  87 CALM      30.57R
WILKERSON PASS RAIN      43  43 100 NE9       30.63S VSB 1/2
$$

COZ069>075-310200-
...SAN LUIS VALLEY/SANGRE DE CRISTO MOUNTAINS...

CITY           SKY/WX    TMP DP  RH WIND       PRES   REMARKS
ALAMOSA        CLOUDY    64  52  64 E13       30.30R
LA VETA PASS   TSTM      46  45  93 E9        30.52F VSB 1/4
SAGUACHE       LGT RAIN  64  55  72 E13       30.34R
$$

COZ035-036-038>040-310200-
...NORTHERN COLORADO FRONT RANGE...

CITY           SKY/WX    TMP DP  RH WIND       PRES   REMARKS
DENVER INTL AP CLOUDY    60  55  83 E7        30.34S
DMNS CITY PARK   N/A     58  57  95 E2        30.34R
AURORA         LGT RAIN  58  58  99 E10       30.36R
FRONT RANGE AP CLOUDY    63  57  82 E6        30.35F
ERIE MUNI ARPT RAIN      60  58  96 E7        30.34S
BOULDER MUN AP HVY RAIN  59  59 100 N6        30.35S
CENTENNIAL     LGT RAIN  58  55  90 CALM      30.36R FOG
BROOMFIELD     DRIZZLE   59  59 100 NE6       30.36S
FORT COLLINS   CLOUDY    59  55  88 SW6       30.35S
LONGMONT       HVY RAIN  61  58  91 E6        30.36S
$$

COZ041-046-047-076>085-087-088-310200-
...PIKES PEAK/PALMER DIVIDE AND SOUTHERN FOOTHILLS...

CITY           SKY/WX    TMP DP  RH WIND       PRES   REMARKS
COLO. SPRINGS  LGT RAIN  58  56  93 SE7       30.38R FOG
A. F. ACADEMY  LGT RAIN  55  55 100 SW5       30.39R FOG
ELLICOTT       CLOUDY    60  51  72 E13       30.36R
FALCON         DRIZZLE   55  54  95 E8        30.40S
FORT CARSON    LGT RAIN  58  58 100 SE5       30.36R
LIMON          CLOUDY    60  50  69 S7        30.33F
MONUMENT HILL  RAIN      54  52  94 E8        30.40R
TRINIDAD       CLOUDY    62  55  77 E14       30.32R
$$

COZ042>045-048>051-090-091-310200-
...NORTHEAST COLORADO...

CITY           SKY/WX    TMP DP  RH WIND       PRES   REMARKS
GREELEY ARPT   NOT AVBL
AKRON          CLOUDY    62  52  69 W8        30.30S
BURLINGTON     CLOUDY    67  52  58 NW3       30.26F
WRAY             N/A     70  55  59 W5        30.24F
STERLING       CLOUDY    68  61  77 W5        30.26S
HOLYOKE        CLOUDY    72  59  64 W9        30.24S
FORT MORGAN    CLOUDY    60  55  83 CALM      30.31S
$$

COZ086-089-092>099-310200-
...SOUTHEAST COLORADO...

CITY           SKY/WX    TMP DP  RH WIND       PRES   REMARKS
PUEBLO         CLOUDY    65  58  78 E10       30.28S
LA JUNTA       CLOUDY    66  58  75 E10       30.27R
LAMAR          MOSUNNY   67  56  67 E8        30.24S
SPRINGFIELD      N/A     61  58  90 NE13      30.27R
$$


USA.gov is the U.S. government's official web portal to all federal, state and local government web resources and services.